Regional Weather Roundup
Issued by NWS

Home | Current Version | Previous Version | Graphics & Text | Print | Product List | Glossary On
Versions: 1 2 3 4 5 6 7 8 9 10 11 12 13 14 15 16 17 18 19 20 21 22 23 24 25 26 27
000
ASUS45 KTFX 181510
RWRMT
MONTANA REGIONAL WEATHER ROUNDUP
NATIONAL WEATHER SERVICE GREAT FALLS MT
900 AM MDT MON SEP 18 2017

NOTE: "FAIR" INDICATES FEW OR NO CLOUDS BELOW 12000 FEET WITH NO
SIGNIFICANT WEATHER AND/OR OBSTRUCTIONS TO VISIBILITY.

MTZ001>007-043-181600-
WEST OF THE DIVIDE

CITY           SKY/WX    TMP DP  RH WIND       PRES   REMARKS
KALISPELL      CLOUDY    50  48  93 S9        29.70F
MISSOULA       CLOUDY    50  42  74 CALM      29.73F
BUTTE          CLOUDY    43  36  76 W3        29.84R
MULLAN PASS    LGT RAIN  39  38  96 VRB3      29.74R VSB 3/4
ANACONDA         N/A     52  32  46 S10       29.79F
HAMILTON         N/A     48  41  76 CALM      29.74F
LIBBY            N/A     48  48 100 CALM      29.68R VSB 1
$$

MTZ008-052>055-181600-
SOUTHWEST MONTANA

CITY           SKY/WX    TMP DP  RH WIND       PRES   REMARKS
BOZEMAN        CLOUDY    49  42  77 CALM      29.79F
DILLON         CLOUDY    49  34  56 S3        29.82S
W YELLOWSTONE  CLOUDY    34  32  93 CALM      29.98F
ENNIS          CLOUDY    57  30  35 S25G33    29.86F
$$

MTZ009-010-012-014-046-048-049-054-181600-
EAST SLOPES AND CENTRAL MONTANA

CITY           SKY/WX    TMP DP  RH WIND       PRES   REMARKS
CUT BANK       CLOUDY    52  39  61 CALM      29.68F
GREAT FALLS    CLOUDY    55  35  47 S7        29.71F
MALMSTROM AFB  CLOUDY    55  37  50 SW12      29.70F
HELENA         CLOUDY    47  40  76 CALM      29.75F
BOWMANS CRNR     N/A     51  33  49 S17       29.70F
CHOTEAU          N/A     54  36  50 S6        29.71F
FAIRFIELD        N/A     53  35  51 S10       29.70F
POWER            N/A     52  35  52 SW12      29.69F
RAYNESFORD       N/A     57  34  41 E7        29.73F
ULM            PTSUNNY   56  36  48 S9        29.71F
$$

MTZ011-013-016-021-045-047-050-051-181600-
NORTH CENTRAL MONTANA

CITY           SKY/WX    TMP DP  RH WIND       PRES   REMARKS
HAVRE          SUNNY     49  43  80 W5        29.69F
LEWISTOWN      CLOUDY    58  35  42 SW10      29.76F
N BAR RANCH    PTSUNNY   54  36  50 CALM      29.81S
CHINOOK          N/A     46  39  76 E5        29.70S
DENTON           N/A     56  39  52 S6        29.70F
GEYSER           N/A     54  36  51 W3        29.73F
GRASS RANGE    PTSUNNY   58  35  42 S8        29.73F
JUDITH GAP     PTSUNNY   50  36  57 S8        29.79F
WINIFRED       PTSUNNY   60  34  37 SW8       29.73S
$$

MTZ017>020-022>027-061-062-181600-
NORTHEAST MONTANA

CITY           SKY/WX    TMP DP  RH WIND       PRES   REMARKS
GLASGOW        MOSUNNY   50  44  80 SE12      29.74S
JORDAN           N/A     51  41  68 CALM      29.75F
SIDNEY         SUNNY     49  45  86 S7        29.82S
WOLF POINT     SUNNY     47  42  83 E3        29.79R
MALTA          CLOUDY    46  43  87 NE6       29.71F
PLENTYWOOD       N/A     50  43  76 CALM      29.80R
POPLAR           N/A     52  43  71 CALM      29.79S
$$

MTZ028>42-056>058-181600-
SOUTHCENTRAL AND SOUTHEAST MONTANA

CITY           SKY/WX    TMP DP  RH WIND       PRES   REMARKS
BAKER          SUNNY     52  46  80 SE5       29.85F
BILLINGS       MOSUNNY   54  39  57 SW10      29.80S
LIVINGSTON     CLOUDY    61  32  33 SW21G40   29.78S
MILES CITY     CLOUDY    50  40  68 S12       29.81S
BIG TIMBER     SUNNY     43  37  81 N8        29.83F
HARLOWTON        N/A     43  36  77 MISG      29.80F
LAUREL           N/A     55  41  58 SW13      29.80F
$$

REGIONAL REPORTS...DAKOTAS

CITY           SKY/WX    TMP DP  RH WIND       PRES   REMARKS
WILLISTON      SUNNY     53  47  79 S6        29.82F
MINOT          SUNNY     54  47  77 E3        29.85F
DICKINSON      SUNNY     55  49  80 S7        29.84F
BEACH            N/A     54  46  76 S9        29.86F
CROSBY           N/A     54  50  87 S9        29.81F
TIOGA            N/A     52  52 100 SE8       29.84F
BISMARCK       SUNNY     53  49  86 CALM      29.88S
GRAND FORKS    CLOUDY    53  49  86 S6        29.94S
FARGO          CLOUDY    59  50  72 SE13      29.92F
BUFFALO SD       N/A     50  47  89 W3        29.81S
RAPID CITY     SUNNY     59  41  51 CALM      29.91S
$$

REGIONAL REPORTS...WYOMING/IDAHO/WASHINGTON

CITY           SKY/WX    TMP DP  RH WIND       PRES   REMARKS
GILLETTE       SUNNY     57  39  51 CALM      29.90S
SHERIDAN       MOSUNNY   51  41  68 CALM      29.86F
BUFFALO WY     CLOUDY    59  29  31 SE3       29.91S
CODY           SUNNY     53  34  48 CALM      29.91S
YELLOWSTONE LA   N/A     34  33  96 CALM      30.05S
IDAHO FALLS    CLOUDY    49  42  77 W3        29.91S
SALMON         CLOUDY    55  39  54 W5        29.83F
BOISE          CLOUDY    58  52  80 CALM      29.83S
SPOKANE        CLOUDY    50  50 100 S9        29.70S
$$

REGIONAL REPORTS...ALBERTA

CITY           SKY/WX    TMP DP  RH WIND       PRES   REMARKS
EDMONTON       SUNNY     43  39  87 E10       29.56S
CALGARY        PTSUNNY   52  32  46 SW2       29.54F
LETHBRIDGE     PTSUNNY   52  36  54 S6        29.61F
MEDICINE HAT   PTSUNNY   54  37  54 S6        29.62F
$$

REGIONAL REPORTS...SASKATCHEWAN

CITY           SKY/WX    TMP DP  RH WIND       PRES   REMARKS
SWIFT CURRENT  MOSUNNY   50  36  57 S8        29.66F
REGINA         MOSUNNY   46  37  71 SE13      29.76F
SASKATOON      SUNNY     48  39  71 E17       29.73F
$$




USA.gov is the U.S. government's official web portal to all federal, state and local government web resources and services.